Wind_Speed
16 13 12 12 11 10 9 7 5 4 5 6 7 8 10 12 13 14 14 14 14 15 15 15 16 15 14 14 14 13 13 13 12 12 11 10 8 7 7 6 6 6 5 5
17 14 13 12 12 13 11 8 5 3 1 3 3 5 7 10 11 12 12 12 12 13 14 15 15 14 14 14 14 13 13 13 12 11 10 9 8 8 7 6 6 6 6 6
18 16 15 14 13 13 11 9 6 3 2 2 2 3 5 7 9 10 10 11 10 11 12 12 13 13 13 12 12 12 12 12 12 11 10 10 9 8 7 7 7 6 6 6
20 19 18 16 14 13 12 12 9 6 4 4 3 3 4 5 7 8 9 9 9 11 11 11 11 11 12 11 11 11 11 11 11 11 11 10 10 9 8 8 8 7 7 7
21 20 19 18 15 13 12 12 11 9 8 7 6 5 4 4 5 6 7 9 8 9 10 10 9 10 10 10 10 11 11 11 11 11 11 11 9 9 9 7 7 7 7 7
22 22 20 18 16 15 14 14 13 13 11 10 7 7 5 4 4 4 5 6 7 8 8 9 8 8 9 10 10 10 11 11 11 11 11 10 10 9 9 8 8 7 7 8
24 23 21 20 20 19 18 17 16 16 15 12 10 10 7 5 4 4 4 4 4 5 7 8 8 8 8 9 9 10 10 10 11 10 10 9 9 9 9 8 8 8 8 9
26 25 22 21 21 19 19 19 18 17 16 14 13 11 9 8 6 5 5 6 5 5 6 6 6 6 8 8 8 9 9 10 10 10 10 9 9 9 9 9 8 8 8 9
28 26 24 23 22 21 20 20 19 18 17 16 15 14 12 10 8 7 8 8 8 6 6 6 6 7 8 8 7 8 8 9 9 9 9 9 9 9 9 8 8 8 9 9
28 27 26 25 24 24 22 21 20 20 19 19 18 16 14 10 9 9 8 8 8 7 7 7 7 7 7 8 8 8 8 8 9 9 9 8 8 8 8 8 8 8 9 9
30 29 28 27 27 26 24 23 22 22 22 21 20 17 14 12 12 11 9 9 10 10 9 8 7 7 7 8 9 8 8 8 9 9 8 8 8 8 8 8 8 9 9 10
31 30 30 30 28 27 26 25 24 23 22 22 22 19 18 16 14 13 12 12 12 12 11 11 10 8 8 9 9 8 8 8 8 8 8 8 8 9 9 9 9 10 10 11
31 32 32 31 31 30 29 28 26 24 23 24 24 21 18 18 17 15 14 14 13 13 13 12 12 11 10 10 9 9 8 8 8 8 9 9 9 9 10 10 10 10 11 12
33 33 33 33 32 32 31 30 29 28 26 26 25 23 21 19 18 17 16 16 15 15 14 14 14 13 12 11 10 10 9 8 8 8 9 9 9 10 10 10 10 11 12 13
34 34 34 33 33 33 33 32 31 30 28 27 26 24 22 20 19 19 19 18 18 17 16 16 15 15 14 13 12 10 9 9 9 9 9 9 10 11 11 11 11 11 12 13
36 36 35 35 34 34 34 33 32 31 30 29 28 25 23 21 21 21 21 20 19 20 19 18 17 17 16 15 14 12 11 11 10 10 10 10 11 12 12 12 13 13 13 13
36 37 37 36 36 35 35 32 32 32 31 30 29 26 24 24 24 23 22 22 21 22 21 21 21 19 18 17 16 14 14 13 12 12 12 12 12 13 14 14 14 14 14 14
37 38 37 37 37 38 35 34 33 33 32 31 30 28 27 26 25 24 23 23 23 24 24 23 23 22 21 20 18 17 16 15 14 14 14 14 14 14 15 15 15 15 16 16
38 38 38 38 39 38 36 35 35 34 34 33 32 30 29 28 27 26 26 25 24 25 25 25 25 24 23 22 21 20 19 18 18 17 16 17 17 16 16 16 16 16 16 17
37 38 39 39 40 39 35 34 35 35 36 35 33 31 30 29 30 28 28 27 26 26 26 26 26 25 25 23 22 21 21 20 20 19 18 19 18 18 18 18 18 18 18 18
38 38 39 39 40 40 36 36 35 36 36 35 34 32 31 30 30 30 30 29 29 28 27 28 27 26 26 24 22 22 22 22 21 21 21 21 20 20 20 19 20 19 19 19
38 38 39 39 40 39 37 37 37 37 36 35 34 33 33 32 32 31 32 32 31 31 30 29 28 28 27 26 24 23 24 24 24 25 24 22 21 22 22 22 21 21 20 20
38 38 38 39 40 38 37 37 38 38 38 37 36 35 34 34 34 33 34 34 34 32 32 31 31 30 29 28 27 26 26 26 26 26 25 24 24 23 23 23 23 23 22 22
38 38 38 39 39 39 39 38 38 38 39 39 39 37 37 37 36 35 35 35 36 34 33 32 32 32 31 30 29 29 29 28 28 27 27 26 26 25 24 24 24 24 24 24
36 36 37 38 38 39 39 39 38 38 39 39 40 40 39 38 38 37 37 36 36 36 35 34 34 33 33 32 32 31 31 31 30 29 29 28 27 26 26 25 25 25 25 25
36 36 37 37 36 37 38 39 40 40 40 40 40 40 40 40 39 39 39 39 38 38 38 37 35 35 34 34 33 33 33 33 33 32 31 30 29 29 27 27 27 26 27 27
Wind_Direction
190 186 177 172 174 166 164 150 126 106 77 56 45 45 47 44 41 41 41 39 40 41 44 48 52 54 53 53 52 52 54 52 51 51 50 48 47 41 37 36 36 33 34 25
193 189 179 178 179 175 174 163 155 138 77 43 33 42 41 43 40 37 37 36 32 35 40 45 47 49 49 49 50 50 48 46 46 44 42 39 36 31 30 33 30 28 27 21
196 191 187 187 187 182 183 190 183 173 173 266 335 6 29 31 25 26 31 28 27 29 36 42 44 44 45 45 44 44 41 39 38 37 34 34 32 33 34 32 28 26 25 26
198 198 198 197 195 190 190 199 195 197 220 265 286 323 352 5 8 10 22 19 17 24 31 35 39 40 40 39 39 39 37 34 32 30 29 28 29 28 24 20 19 23 22 15
202 204 208 205 203 203 199 202 204 213 229 247 263 284 298 320 350 359 8 14 16 19 23 27 32 36 37 35 34 33 32 31 29 27 27 26 26 25 22 20 20 20 18 14
205 207 211 209 205 210 210 206 210 221 230 233 239 259 267 289 323 342 354 8 16 18 17 19 22 28 30 28 27 26 26 25 24 23 22 23 24 23 21 18 22 20 17 12
208 210 210 208 206 208 212 211 215 223 226 228 232 248 250 260 283 313 315 330 354 12 10 11 11 16 20 18 18 18 19 18 18 19 19 20 20 18 17 16 17 13 9 8
211 212 212 211 211 214 215 216 219 227 230 231 232 241 249 258 269 280 292 303 314 344 353 360 4 3 6 7 10 10 10 10 11 13 14 15 16 14 10 13 11 9 8 4
214 214 214 217 216 218 216 219 222 229 229 231 232 237 242 249 256 269 289 305 312 327 338 346 349 352 358 357 0 1 4 5 6 6 6 7 7 7 5 8 10 8 5 1
216 216 213 214 214 217 221 223 225 228 231 235 235 234 233 247 257 269 281 292 304 316 323 330 336 341 345 346 351 354 355 358 0 0 359 357 357 359 360 358 358 357 355 352
217 217 213 213 215 216 219 223 226 231 232 236 238 236 229 234 248 256 269 285 296 308 308 309 318 323 325 330 334 336 341 346 351 352 353 351 351 352 353 352 350 347 345 344
217 219 217 217 219 219 221 225 228 232 234 238 238 240 234 237 245 258 266 277 289 293 296 301 304 307 307 311 319 321 327 334 342 346 350 349 346 347 348 347 345 344 342 340
216 221 222 220 220 220 221 224 228 232 237 240 242 244 242 242 243 254 264 270 279 285 287 291 295 297 293 298 306 312 314 323 332 338 343 344 344 344 345 346 345 341 340 340
218 221 223 223 222 223 223 224 229 233 235 237 242 245 244 246 245 250 260 264 274 281 282 285 290 289 288 290 294 299 301 311 319 328 334 335 336 338 340 342 341 340 338 338
220 223 225 226 225 226 228 227 230 234 235 236 239 243 244 245 247 249 258 264 270 274 278 283 286 286 288 288 290 292 290 300 307 314 320 323 326 329 332 333 334 336 336 334
223 225 226 227 227 228 230 229 232 234 236 237 239 241 242 241 244 249 254 261 268 272 276 281 283 283 284 284 287 287 285 289 294 301 306 311 316 320 322 323 325 329 331 330
225 226 226 227 227 229 230 229 230 233 235 238 240 242 244 242 244 250 256 261 264 267 274 277 280 277 277 280 281 283 284 282 282 287 292 301 308 313 315 314 316 317 320 322
225 227 228 228 227 229 231 229 230 233 235 237 238 240 243 244 247 251 255 261 263 266 272 278 281 276 277 278 275 275 276 276 277 279 284 291 298 303 307 309 310 311 313 318
226 228 229 229 229 230 230 230 231 233 235 237 239 241 242 245 246 248 251 256 261 264 269 274 278 280 277 274 273 271 271 272 272 273 279 286 292 296 301 305 306 310 312 314
229 229 230 229 230 229 230 231 233 235 237 237 238 240 242 244 245 247 251 255 258 261 265 269 274 276 272 271 270 270 270 272 272 274 278 283 288 291 294 299 302 305 309 310
232 230 231 232 233 232 230 231 233 235 238 238 240 241 243 244 247 249 252 255 258 260 265 267 271 273 272 273 272 272 273 273 273 273 275 279 282 285 288 293 296 299 302 304
234 235 235 234 235 234 233 234 235 237 239 239 240 243 244 246 248 250 252 255 258 260 263 266 268 269 270 272 273 274 274 274 273 274 275 277 281 283 286 290 292 294 297 299
236 238 239 238 238 237 236 237 237 238 239 240 241 243 246 247 249 251 253 254 256 258 261 265 266 266 267 268 270 271 273 273 273 274 274 276 277 280 283 286 288 289 292 294
236 239 240 240 239 238 238 239 239 239 241 242 242 244 245 246 248 251 252 254 255 257 259 263 264 263 264 267 268 269 271 272 272 273 273 274 276 277 279 281 284 286 287 290
236 239 240 241 242 242 241 241 240 240 241 243 243 245 246 249 250 251 252 253 255 256 259 262 263 264 264 265 267 269 271 272 272 271 272 273 274 274 277 279 281 283 284 285
236 238 240 243 243 244 244 243 243 243 243 245 246 247 247 248 250 251 252 254 256 257 259 261 262 263 264 265 266 267 269 269 270 270 270 271 272 272 274 276 277 279 281 283
Height
5923 5926 5927 5929 5930 5932 5933 5934 5933 5934 5935 5935 5935 5935 5935 5933 5933 5932 5931 5929 5928 5926 5925 5923 5922 5920 5919 5917 5916 5915 5913 5912 5911 5909 5908 5907 5906 5905 5904 5902 5901 5900 5899 5898
5922 5924 5927 5928 5929 5931 5932 5933 5933 5934 5935 5936 5936 5936 5936 5935 5934 5933 5932 5931 5930 5928 5927 5925 5924 5923 5921 5919 5918 5916 5915 5914 5912 5911 5910 5908 5907 5905 5904 5902 5901 5900 5899 5898
5920 5924 5925 5926 5928 5930 5931 5932 5933 5934 5935 5935 5936 5936 5936 5936 5935 5934 5933 5932 5931 5929 5929 5927 5925 5924 5923 5922 5920 5919 5917 5915 5914 5912 5911 5909 5907 5906 5904 5903 5901 5900 5899 5898
5917 5920 5922 5924 5926 5928 5929 5931 5932 5933 5934 5935 5935 5936 5935 5935 5935 5934 5933 5933 5932 5930 5930 5929 5927 5926 5924 5923 5922 5920 5919 5917 5915 5913 5911 5910 5908 5906 5905 5903 5902 5901 5900 5898
5914 5917 5919 5922 5924 5926 5928 5930 5930 5931 5932 5933 5933 5934 5935 5934 5934 5934 5933 5932 5932 5931 5930 5929 5928 5927 5926 5924 5923 5921 5920 5918 5916 5914 5912 5910 5909 5907 5905 5904 5903 5901 5900 5899
5911 5914 5916 5919 5922 5924 5926 5928 5929 5929 5930 5931 5932 5933 5934 5934 5934 5934 5933 5932 5932 5931 5930 5930 5929 5928 5926 5925 5924 5922 5920 5919 5917 5914 5912 5910 5909 5907 5906 5904 5902 5901 5900 5899
5906 5910 5912 5915 5918 5921 5923 5926 5927 5927 5927 5929 5931 5931 5932 5932 5932 5933 5933 5932 5931 5931 5930 5930 5929 5927 5926 5925 5924 5922 5920 5919 5917 5915 5913 5911 5909 5908 5906 5904 5903 5901 5900 5898
5901 5906 5909 5911 5915 5917 5919 5922 5924 5925 5926 5927 5928 5929 5931 5931 5931 5930 5931 5931 5930 5930 5930 5929 5928 5927 5926 5925 5924 5922 5920 5919 5917 5915 5913 5911 5910 5908 5906 5904 5903 5901 5900 5898
5896 5901 5905 5908 5911 5914 5916 5918 5920 5921 5922 5924 5925 5926 5928 5928 5929 5929 5929 5929 5929 5929 5929 5929 5928 5926 5925 5924 5923 5922 5920 5918 5917 5915 5913 5911 5909 5908 5906 5904 5903 5901 5899 5897
5891 5896 5900 5903 5906 5909 5912 5914 5916 5917 5918 5919 5921 5923 5925 5926 5926 5927 5927 5927 5928 5928 5928 5927 5927 5925 5924 5924 5922 5921 5919 5918 5916 5914 5912 5911 5909 5907 5905 5904 5902 5900 5898 5896
5885 5890 5895 5898 5900 5904 5907 5909 5911 5913 5914 5916 5917 5921 5922 5923 5923 5923 5924 5925 5925 5926 5926 5925 5924 5924 5923 5922 5921 5920 5918 5916 5915 5913 5912 5910 5908 5906 5904 5902 5900 5899 5897 5895
5879 5883 5887 5892 5896 5899 5902 5904 5906 5908 5910 5912 5913 5918 5917 5918 5919 5920 5921 5922 5922 5923 5923 5922 5922 5922 5921 5920 5919 5918 5916 5915 5913 5912 5910 5908 5907 5905 5903 5901 5899 5897 5895 5893
5872 5877 5881 5886 5892 5894 5896 5899 5901 5904 5906 5907 5909 5913 5912 5914 5915 5916 5917 5918 5919 5919 5920 5920 5920 5919 5919 5918 5917 5916 5915 5913 5912 5910 5909 5907 5905 5903 5901 5899 5897 5895 5893 5891
5867 5870 5875 5879 5883 5887 5890 5893 5895 5898 5900 5902 5904 5907 5908 5910 5911 5913 5913 5914 5915 5915 5916 5916 5916 5916 5915 5914 5914 5913 5912 5911 5910 5909 5907 5905 5904 5902 5900 5898 5895 5893 5891 5889
5860 5864 5868 5873 5877 5881 5884 5888 5890 5892 5895 5897 5900 5901 5904 5905 5907 5908 5909 5910 5911 5911 5912 5912 5912 5911 5911 5911 5910 5909 5909 5908 5907 5906 5905 5903 5902 5900 5898 5896 5893 5891 5888 5886
5853 5857 5862 5866 5870 5873 5877 5881 5884 5887 5889 5892 5894 5896 5899 5900 5902 5903 5904 5905 5906 5907 5907 5908 5908 5907 5907 5907 5907 5906 5906 5905 5904 5903 5902 5900 5899 5897 5895 5893 5891 5889 5886 5884
5845 5850 5854 5859 5863 5866 5870 5874 5877 5880 5883 5886 5888 5892 5893 5894 5896 5898 5899 5900 5901 5902 5902 5903 5903 5903 5902 5902 5902 5902 5902 5901 5900 5899 5898 5897 5895 5894 5892 5890 5888 5886 5883 5881
5838 5842 5846 5851 5855 5858 5866 5868 5870 5873 5876 5879 5882 5885 5887 5889 5891 5892 5893 5894 5895 5896 5896 5897 5897 5897 5897 5897 5897 5897 5897 5896 5896 5895 5894 5893 5891 5890 5888 5886 5884 5882 5880 5877
5830 5834 5838 5842 5846 5851 5856 5860 5863 5865 5868 5872 5874 5877 5880 5882 5883 5885 5887 5889 5890 5891 5891 5891 5891 5892 5891 5891 5891 5891 5891 5891 5891 5890 5889 5888 5887 5885 5884 5882 5879 5878 5876 5874
5822 5826 5831 5834 5837 5842 5850 5853 5854 5858 5860 5864 5867 5870 5873 5875 5876 5879 5881 5882 5884 5885 5886 5886 5886 5885 5884 5883 5884 5885 5885 5885 5885 5884 5884 5883 5882 5880 5879 5877 5875 5873 5871 5869
5813 5817 5821 5825 5828 5834 5841 5844 5847 5850 5853 5856 5859 5862 5865 5867 5870 5873 5874 5875 5877 5878 5879 5879 5879 5878 5878 5877 5878 5879 5879 5879 5879 5878 5878 5877 5876 5874 5873 5872 5870 5868 5866 5864
5805 5809 5813 5816 5820 5827 5832 5835 5838 5841 5844 5848 5851 5854 5856 5859 5861 5864 5866 5867 5869 5870 5871 5871 5872 5872 5872 5871 5872 5873 5873 5873 5872 5871 5870 5869 5869 5869 5867 5866 5864 5863 5861 5859
5796 5801 5804 5809 5814 5818 5822 5825 5828 5832 5835 5838 5842 5845 5848 5850 5853 5855 5857 5858 5860 5861 5862 5862 5863 5864 5864 5865 5865 5866 5866 5865 5865 5864 5864 5863 5862 5862 5861 5860 5858 5857 5855 5854
5788 5791 5795 5799 5803 5808 5812 5815 5819 5822 5826 5829 5832 5835 5838 5841 5843 5845 5847 5848 5850 5851 5853 5854 5854 5855 5856 5856 5857 5857 5857 5857 5857 5857 5857 5856 5855 5854 5854 5853 5852 5851 5849 5848
5780 5783 5786 5789 5794 5798 5802 5805 5809 5813 5816 5818 5822 5825 5828 5831 5833 5835 5837 5838 5840 5842 5844 5844 5845 5846 5847 5848 5848 5848 5848 5849 5848 5848 5848 5848 5847 5847 5846 5846 5845 5844 5843 5841
5772 5775 5778 5782 5786 5789 5793 5795 5798 5802 5805 5808 5812 5815 5817 5820 5822 5824 5826 5828 5830 5832 5833 5835 5836 5837 5837 5838 5839 5839 5839 5839 5839 5839 5839 5839 5839 5839 5838 5838 5837 5836 5835 5834